Location: Chmeln�
(49.6483°N, 14.9871°E)
Time: 06:22:29
(UTC+00:00)

Cosmos 1844 Rocket - Pass Details

Date: 18 September 2020
Orbit: 823 x 846 km, 71.0° (Epoch: 22 October)

Event Time Altitude Azimuth Distance (km) Brightness Sun altitude
Rises 17:57:35 0° 161° (SSE) 3,346 5.5 -9.1°
Reaches altitude 10° 18:00:36 10° 145° (SE) 2,420 4.6 -9.6°
Maximum altitude 18:04:29 20° 100° (E) 1,834 3.8 -10.2°
Drops below altitude 10° 18:08:24 10° 55° (NE) 2,440 4.7 -10.8°
Sets 18:11:27 0° 40° (NE) 3,382 5.6 -11.3°
